Lid_Strength_Index
9 9 9 8 8 8 7 7 6 6 5 5 4 3 2 1 1 1 1 1 2 2 2 2 2 2 3 4 4 5 5 5 6 8 11 11 11 11 12 11 11 12 12
9 9 9 9 9 9 9 9 8 8 6 6 5 5 4 3 2 1 2 2 2 2 2 3 3 3 4 5 5 6 6 6 6 6 12 12 12 13 13 13 12 12 12
10 10 10 11 11 10 10 9 9 9 8 8 7 6 6 5 4 3 2 2 2 2 2 3 3 5 5 7 7 7 7 9 10 11 12 13 14 14 13 13 13 13 12
12 12 12 13 13 12 11 11 11 10 9 9 8 8 8 7 7 6 4 4 3 3 4 5 5 6 6 7 8 8 10 11 13 13 14 14 14 14 15 15 15 14 14
13 13 14 13 13 13 13 13 12 11 11 10 10 10 10 9 8 9 8 7 6 6 8 9 10 11 11 9 10 11 12 13 14 14 14 15 15 15 15 14 15 15 14
14 14 14 15 14 14 14 14 13 13 12 11 11 11 11 11 10 9 9 9 9 9 9 10 11 13 12 11 10 11 12 12 13 14 14 14 14 14 14 14 15 16 17
15 15 15 16 16 15 15 14 14 14 13 12 12 12 12 12 10 11 11 12 12 12 12 12 13 12 13 13 11 11 11 10 10 12 13 14 14 13 14 14 14 15 15
15 16 16 16 16 16 16 16 16 15 14 14 14 13 14 13 11 11 12 13 13 13 13 12 13 13 12 13 13 13 13 14 13 13 13 13 13 13 13 13 14 15 15
16 16 16 16 17 16 16 16 15 15 14 14 14 14 14 14 12 11 12 13 14 14 13 13 13 13 12 12 13 14 14 14 13 12 12 12 13 13 13 15 17 18 19
16 16 16 16 16 16 16 16 15 14 14 14 14 14 14 14 12 12 12 13 14 14 14 13 12 13 12 12 14 14 14 15 15 15 15 15 15 15 14 14 15 17 17
15 15 16 16 16 16 17 16 15 15 15 15 15 15 14 14 13 11 10 12 12 13 14 14 13 12 12 12 13 14 15 16 16 17 17 17 16 15 16 16 16 17 19
16 16 16 16 15 15 17 16 16 16 16 16 16 15 14 14 12 12 11 11 12 13 13 13 13 13 13 13 15 15 16 17 18 19 19 19 19 18 18 17 17 17 17
17 17 17 17 16 16 17 16 16 17 17 16 15 16 15 13 13 11 11 11 12 14 14 14 14 14 15 16 15 15 17 18 19 19 19 19 19 18 18 18 18 18 18
18 18 17 17 17 16 16 15 17 18 18 17 17 18 17 15 14 13 14 15 13 15 15 15 14 15 15 16 17 18 18 18 19 20 20 20 19 20 20 19 21 20 21
16 16 16 16 17 16 16 16 14 13 12 17 20 18 17 17 13 11 12 13 15 14 19 19 18 18 18 18 18 19 19 19 20 20 20 21 21 21 21 20 21 22 23
18 17 18 18 18 17 17 17 14 13 12 12 11 12 14 11 11 12 12 13 13 14 20 22 20 20 20 20 20 20 20 20 20 21 21 21 22 22 22 22 22 23 24
22 19 19 19 19 20 20 20 21 18 15 14 14 13 13 12 12 13 14 14 15 19 26 24 23 21 21 20 21 21 21 21 20 21 22 22 22 22 24 23 23 23 24
25 21 22 21 20 19 20 20 20 22 22 21 18 15 15 13 13 14 14 19 26 24 27 27 27 25 24 23 22 23 22 22 23 23 23 23 24 24 24 24 24 25 25
23 22 23 23 22 20 21 21 22 24 25 26 25 20 19 15 15 16 17 29 30 30 30 30 29 27 26 26 25 27 26 25 24 25 25 25 24 24 24 24 24 23 24
26 22 22 24 22 23 23 23 23 25 25 27 26 26 26 25 28 31 31 32 33 32 31 31 29 30 30 30 29 29 27 28 26 26 25 24 24 23 23 23 22 23 22
28 28 24 26 24 24 25 26 26 28 28 28 28 28 15 26 30 33 33 33 34 31 30 30 28 28 28 29 32 29 30 26 25 25 24 23 23 23 21 21 21 21 21
29 29 29 29 27 26 27 27 28 31 31 32 29 30 18 32 33 31 31 30 29 30 30 30 29 29 28 29 27 28 27 25 24 23 23 22 21 21 20 20 20 20 20
29 30 30 31 32 30 32 33 33 33 32 31 30 29 29 28 29 30 28 27 28 28 28 32 29 27 28 28 28 26 25 24 23 22 22 21 21 20 20 20 19 19 19
33 32 32 33 35 33 33 30 29 27 28 29 30 29 28 28 28 28 28 27 28 28 28 28 28 28 26 26 26 25 24 23 22 21 22 21 20 19 19 19 19 18 18
35 34 33 32 33 31 30 29 29 29 30 30 28 31 30 28 28 27 27 28 28 28 27 27 28 27 27 26 25 24 23 21 21 21 20 20 20 20 20 19 19 18 18
34 34 31 31 30 29 29 28 28 28 28 27 28 28 28 27 27 28 27 28 27 27 26 25 26 27 27 25 24 22 19 17 17 17 16 15 15 15 15 15 15 15 14